STARLINK-2037 (47653 NORAD) Tracking and Keplerian Element Data
This shows tracking and keplerian element data for the satellite.
Feedback or suggestion? Click here.
Element | Value |
Catalog | 47653 |
Name | STARLINK-2037 |
Epoch Orbit | 235 |
Epoch Day | 57.16667824 |
Epoch Year | 2021 |
RAAN | 52.0439 |
Inclination | 53.0491 |
Eccentricity | 0.0001585 |
Argument of Perigee | 85.2031 |
Mean Anonmoly | 164.9737 |
Mean Motion | 15.85779601 |
Decay Rate | 0.0005628 |
L1 | 1 47653U 21012AK 21057.16667824 .00056280 00000-0 22765-3 0 9992 |
L2 | 2 47653 53.0491 52.0439 0001585 85.2031 164.9737 15.85779601 2356 |
Live tracking and technical data element details for STARLINK-2037 (NORAD 47653). STARLINK-2037 can be tracked NOW for your location showing map with azimuth and elevation plus other details from your city location.
Track the satellite on the map from your city or location and see movement details for azimuth, elevation, latitude, longitude, range, height, and movement on the map or in text.
IsCatalogInMostPopularTable: catalog: 47653, numindb: -1
Insert: records affected: 1
GetName: 47653 STARLINK-2037
Hit Count: inserted at: Fri, 26 Feb 2021 10:01:13 GMT